GPS IIF-10

operational
NORAD ID: 40730 Int'l Des: 2015-033 Owner: AFSMC Country: US Constellation: GPS
MEOGNSS

关于 GPS IIF-10

正在加载描述...

实时位置

正在加载3D地球...

即将过境

高度历史

Altitude vs Time

uPlot chart will show altitude changes over time

两行轨道根数

1 40730U 15033A 25297.89062240 -.00000016 00000-0 00000-0 0 9990
2 40730 54.1724 276.7818 0107904 25.7563 334.7618 2.00568169 75277
Epoch: Oct 24, 2025 • Age: 19 hours

当前状态

高度 20473.5 km
速度 3.83 km/s
星下点 -25.61°S, 163.03°W
发射日期 Jul 15, 2015
运行时间 10.2 years
类型 navigation

技术详情

分类 Payload
质量 1630.00 kg
干质量 1500.00 kg
总质量 1630.00 kg
长度 2.50 m
直径 1.80 m
跨度 18.00 m
形状 Box + 2 Pan
制造商 BOES
平台类型 GPS IIF
阶段状态 In Orbit
所有者/国家 AFSMC/US

大型星座

Loading constellations...